Hourly Weather Malye Kuzmenki

Today, 21 September, Monday

Time Temperature Precipitation Wind Pressure Humidity
00:00 +4°C° 0 mm 3 mps 749 mmHg 88%
01:00 +4°C° 0 mm 3 mps 749 mmHg 88%
02:00 +4°C° 0 mm 3 mps 749 mmHg 89%
03:00 +4°C° 0 mm 3 mps 749 mmHg 90%
04:00 +4°C° 0 mm 3 mps 749 mmHg 91%
05:00 +4°C° 0 mm 4 mps 748 mmHg 92%
06:00 +5°C° 0 mm 4 mps 748 mmHg 87%
07:00 +7°C° 0 mm 5 mps 748 mmHg 82%
08:00 +8°C° 0 mm 6 mps 748 mmHg 77%
09:00 +9°C° 0 mm 6 mps 748 mmHg 73%
10:00 +10°C° 0 mm 6 mps 748 mmHg 68%
11:00 +13°C° 0 mm 6 mps 747 mmHg 64%
12:00 +13°C° 0 mm 6 mps 747 mmHg 62%
13:00 +14°C° 0 mm 6 mps 747 mmHg 60%
14:00 +15°C° 0 mm 6 mps 747 mmHg 59%
15:00 +14°C° 0 mm 6 mps 747 mmHg 64%
16:00 +13°C° 0 mm 5 mps 747 mmHg 69%
17:00 +12°C° 0 mm 4 mps 747 mmHg 75%
18:00 +12°C° 0 mm 4 mps 747 mmHg 79%
19:00 +11°C° 0 mm 4 mps 747 mmHg 83%
20:00 +10°C° 0 mm 4 mps 747 mmHg 87%
21:00 +10°C° 0 mm 4 mps 747 mmHg 89%
22:00 +10°C° 0 mm 4 mps 747 mmHg 91%
23:00 +10°C° 0 mm 4 mps 747 mmHg 93%

Tomorrow, 22 September, Tuesday

Time Temperature Precipitation Wind Pressure Humidity
00:00 +10°C° 0 mm 4 mps 747 mmHg 94%
01:00 +10°C° 0 mm 4 mps 747 mmHg 94%
02:00 +10°C° 0 mm 4 mps 747 mmHg 95%
03:00 +10°C° 0 mm 4 mps 747 mmHg 95%
04:00 +10°C° 0 mm 4 mps 747 mmHg 96%
05:00 +8°C° 0 mm 4 mps 747 mmHg 96%
06:00 +10°C° 0 mm 5 mps 747 mmHg 92%
07:00 +12°C° 0 mm 5 mps 747 mmHg 87%
08:00 +13°C° 0 mm 6 mps 747 mmHg 83%
09:00 +15°C° 0 mm 6 mps 747 mmHg 77%
10:00 +16°C° 0 mm 7 mps 747 mmHg 71%
11:00 +18°C° 0 mm 7 mps 747 mmHg 64%
12:00 +18°C° 0 mm 7 mps 747 mmHg 62%
13:00 +20°C° 0 mm 7 mps 747 mmHg 60%
14:00 +20°C° 0 mm 7 mps 746 mmHg 58%
15:00 +19°C° 0 mm 6 mps 746 mmHg 62%
16:00 +17°C° 0 mm 6 mps 746 mmHg 67%
17:00 +16°C° 0 mm 5 mps 746 mmHg 71%
18:00 +15°C° 0 mm 5 mps 746 mmHg 75%
19:00 +14°C° 0 mm 4 mps 747 mmHg 80%
20:00 +13°C° 0 mm 4 mps 747 mmHg 84%
21:00 +12°C° 0 mm 4 mps 747 mmHg 86%
22:00 +12°C° 0 mm 4 mps 747 mmHg 88%
23:00 +11°C° 0 mm 3 mps 747 mmHg 90%

Day after tomorrow, 23 September, Wednesday

Time Temperature Precipitation Wind Pressure Humidity
00:00 +11°C° 0 mm 3 mps 747 mmHg 91%
01:00 +11°C° 0 mm 3 mps 747 mmHg 91%
02:00 +10°C° 0 mm 3 mps 747 mmHg 92%
03:00 +10°C° 0 mm 3 mps 747 mmHg 92%
04:00 +10°C° 0 mm 3 mps 747 mmHg 92%
05:00 +10°C° 0 mm 2 mps 748 mmHg 91%
06:00 +11°C° 0 mm 3 mps 748 mmHg 86%
07:00 +12°C° 0 mm 3 mps 748 mmHg 81%
08:00 +14°C° 0 mm 3 mps 748 mmHg 76%
09:00 +16°C° 0 mm 3 mps 748 mmHg 71%
10:00 +18°C° 0 mm 3 mps 748 mmHg 66%
11:00 +20°C° 0 mm 3 mps 748 mmHg 61%
12:00 +20°C° 0 mm 3 mps 748 mmHg 59%
13:00 +21°C° 0 mm 4 mps 748 mmHg 57%
14:00 +22°C° 0 mm 4 mps 747 mmHg 55%
15:00 +20°C° 0 mm 3 mps 747 mmHg 60%
16:00 +19°C° 0 mm 3 mps 747 mmHg 65%
17:00 +17°C° 0 mm 2 mps 747 mmHg 70%
18:00 +16°C° 0 mm 2 mps 747 mmHg 72%
19:00 +15°C° 0 mm 2 mps 747 mmHg 73%
20:00 +14°C° 0 mm 2 mps 747 mmHg 74%
21:00 +14°C° 0 mm 2 mps 747 mmHg 74%
22:00 +13°C° 0 mm 2 mps 747 mmHg 74%
23:00 +13°C° 0 mm 2 mps 747 mmHg 74%

24 September, Thursday

Time Temperature Precipitation Wind Pressure Humidity
00:00 +13°C° 0 mm 2 mps 748 mmHg 75%
01:00 +12°C° 0 mm 2 mps 748 mmHg 75%
02:00 +12°C° 0 mm 2 mps 748 mmHg 76%
03:00 +12°C° 0 mm 2 mps 748 mmHg 76%
04:00 +11°C° 0 mm 1 mps 748 mmHg 76%
05:00 +11°C° 0 mm 1 mps 748 mmHg 76%
06:00 +13°C° 0 mm 1 mps 748 mmHg 72%
07:00 +14°C° 0 mm 1 mps 748 mmHg 68%
08:00 +16°C° 0 mm 1 mps 748 mmHg 64%
09:00 +17°C° 0 mm 2 mps 749 mmHg 59%
10:00 +19°C° 0 mm 2 mps 749 mmHg 54%
11:00 +21°C° 0 mm 2 mps 749 mmHg 49%
12:00 +21°C° 0 mm 2 mps 749 mmHg 48%
13:00 +23°C° 0 mm 2 mps 749 mmHg 46%
14:00 +23°C° 0 mm 2 mps 749 mmHg 45%
15:00 +21°C° 0 mm 2 mps 749 mmHg 50%
16:00 +19°C° 0 mm 2 mps 748 mmHg 55%
17:00 +19°C° 0 mm 1 mps 748 mmHg 60%
18:00 +18°C° 0 mm 1 mps 748 mmHg 62%
19:00 +16°C° 0 mm 1 mps 749 mmHg 63%
20:00 +15°C° 0 mm 2 mps 749 mmHg 65%
21:00 +15°C° 0 mm 2 mps 749 mmHg 66%
22:00 +14°C° 0 mm 2 mps 749 mmHg 67%
23:00 +14°C° 0 mm 1 mps 749 mmHg 67%

25 September, Friday

Time Temperature Precipitation Wind Pressure Humidity
00:00 +14°C° 0 mm 1 mps 749 mmHg 68%
01:00 +13°C° 0 mm 1 mps 749 mmHg 68%
02:00 +13°C° 0 mm 1 mps 749 mmHg 68%
03:00 +13°C° 0 mm 1 mps 749 mmHg 69%
04:00 +13°C° 0 mm 2 mps 749 mmHg 70%
05:00 +12°C° 0 mm 2 mps 749 mmHg 71%
06:00 +14°C° 0 mm 2 mps 749 mmHg 69%
07:00 +15°C° 0 mm 2 mps 749 mmHg 67%
08:00 +16°C° 0 mm 2 mps 749 mmHg 64%
09:00 +18°C° 0 mm 2 mps 749 mmHg 60%
10:00 +19°C° 0 mm 3 mps 749 mmHg 57%
11:00 +21°C° 0 mm 3 mps 749 mmHg 53%
12:00 +22°C° 0 mm 3 mps 749 mmHg 51%
13:00 +22°C° 0 mm 3 mps 749 mmHg 49%
14:00 +23°C° 0 mm 4 mps 749 mmHg 47%
15:00 +22°C° 0 mm 3 mps 749 mmHg 52%
16:00 +20°C° 0 mm 3 mps 749 mmHg 58%
17:00 +18°C° 0 mm 3 mps 748 mmHg 64%
18:00 +18°C° 0 mm 3 mps 748 mmHg 64%
19:00 +17°C° 0 mm 3 mps 748 mmHg 65%
20:00 +16°C° 0 mm 3 mps 748 mmHg 66%
21:00 +14°C° 0 mm 3 mps 748 mmHg 66%
22:00 +14°C° 0 mm 3 mps 749 mmHg 66%
23:00 +14°C° 0 mm 3 mps 749 mmHg 66%

26 September, Saturday

Time Temperature Precipitation Wind Pressure Humidity
00:00 +13°C° 0 mm 3 mps 748 mmHg 67%
01:00 +13°C° 0 mm 3 mps 748 mmHg 67%
02:00 +13°C° 0 mm 3 mps 748 mmHg 67%
03:00 +13°C° 0 mm 3 mps 748 mmHg 68%
04:00 +12°C° 0 mm 3 mps 748 mmHg 69%
05:00 +12°C° 0 mm 3 mps 748 mmHg 70%
06:00 +13°C° 0 mm 4 mps 748 mmHg 66%
07:00 +15°C° 0 mm 4 mps 748 mmHg 63%
08:00 +16°C° 0 mm 5 mps 748 mmHg 60%
09:00 +17°C° 0 mm 5 mps 748 mmHg 56%
10:00 +20°C° 0 mm 6 mps 748 mmHg 52%
11:00 +21°C° 0 mm 6 mps 748 mmHg 48%
12:00 +21°C° 0 mm 6 mps 748 mmHg 47%
13:00 +21°C° 0 mm 6 mps 748 mmHg 47%
14:00 +21°C° 0 mm 6 mps 748 mmHg 47%
15:00 +20°C° 0 mm 6 mps 748 mmHg 50%
16:00 +19°C° 0 mm 5 mps 748 mmHg 54%
17:00 +17°C° 0 mm 4 mps 748 mmHg 57%
18:00 +17°C° 0 mm 4 mps 748 mmHg 57%
19:00 +16°C° 0 mm 5 mps 748 mmHg 57%
20:00 +16°C° 0 mm 5 mps 748 mmHg 56%
21:00 +15°C° 0 mm 5 mps 748 mmHg 55%
22:00 +15°C° 0 mm 5 mps 749 mmHg 55%
23:00 +15°C° 0 mm 5 mps 749 mmHg 54%
Show more